This is the latest recevied weather packets stored in our database for station/object W8CEN. If no packets are shown the sender has not sent any weather packets the latest 10 day(s).
| Time | Temp. | Humidity | Pressure | Rain* | Wind** | Luminosity | Snow |
|---|---|---|---|---|---|---|---|
| 1777755880 | 10° C | 42% | 995.4 hPa | 0 mm | - | 136 W/m² | - |
| 1777755577 | 10° C | 45% | 995.3 hPa | 0 mm | - | 199 W/m² | - |
| 1777755273 | 10° C | 42% | 995.5 hPa | 0 mm | - | 240 W/m² | - |
| 1777754971 | 10° C | 43% | 995.4 hPa | 0 mm | - | 233 W/m² | - |
| 1777754667 | 10.56° C | 44% | 995.3 hPa | 0 mm | - | 221 W/m² | - |
| 1777754366 | 11.11° C | 39% | 995.5 hPa | 0 mm | - | 225 W/m² | - |
| 1777754063 | 11.11° C | 42% | 995.4 hPa | 0 mm | - | 252 W/m² | - |
| 1777753758 | 10.56° C | 44% | 995.3 hPa | 0 mm | - | 810 W/m² | - |
| 1777753456 | 10° C | 44% | 995.3 hPa | 0 mm | - | 366 W/m² | - |
| 1777753154 | 10.56° C | 41% | 995.5 hPa | 0 mm | - | 214 W/m² | - |
| 1777752849 | 10.56° C | 45% | 995.6 hPa | 0 mm | - | 204 W/m² | - |
| 1777752546 | 10.56° C | 42% | 995.6 hPa | 0 mm | - | 278 W/m² | - |
| 1777752242 | 10° C | 45% | 995.9 hPa | 0 mm | - | 373 W/m² | - |
| 1777751940 | 10° C | 45% | 995.9 hPa | 0 mm | - | 299 W/m² | - |
| 1777751636 | 10° C | 45% | 995.7 hPa | 0 mm | - | 356 W/m² | - |
| 1777751333 | 10° C | 46% | 995.8 hPa | 0 mm | - | 380 W/m² | - |
| 1777751030 | 10° C | 43% | 995.9 hPa | 0 mm | - | 344 W/m² | - |
| 1777750726 | 10° C | 45% | 995.8 hPa | 0 mm | - | 252 W/m² | - |
| 1777750423 | 10° C | 47% | 995.9 hPa | 0 mm | - | 183 W/m² | - |
| 1777750118 | 10.56° C | 41% | 995.8 hPa | 0 mm | - | 219 W/m² | - |
| 1777749816 | 10.56° C | 42% | 996.1 hPa | 0 mm | - | 276 W/m² | - |
| 1777749513 | 10.56° C | 46% | 995.9 hPa | 0 mm | - | 476 W/m² | - |
| 1777749211 | 10° C | 45% | 996.1 hPa | 0 mm | - | 478 W/m² | - |
| 1777748908 | 10° C | 50% | 996.1 hPa | 0 mm | - | 359 W/m² | - |
| 1777748605 | 10° C | 50% | 996.4 hPa | 0 mm | - | 297 W/m² | - |
* Rain latest hour (hover to see other rain measurements)
** Current wind speed in m/s (hover to see current wind gust speed)